Flag for Saudi Arabia Weather past 2 weeks in Qatif, Saudi Arabia

Now
108 °F

Sunny.


Feels Like: 101 °F
Forecast: 84 / 105 °F
Wind: 8 mph from Northwest

Location: King Fahd International Airport

Current Time: Sep 20, 2014 at 3:33:00 PM

Latest Report: Sep 20, 2014 at 3:00 PM


Visibility: 10 mi

Pressure: 29.62 "Hg

Humidity: 8%

Dew point: 36 °F

Location of QatifLocation

Historic Weather in Qatif — Graph

°F

Qatif temperature yesterday

Maximum temperature yesterday: 104 °F (at 12:00 PM)
Minimum temperature yesterday: 77 °F (at 3:00 AM)
Average temperature yesterday: 90 °F

Past Weeks' High & Low Weather Summary

 TemperatureHumidityPressure
High115 °F (Sep 7, 2:00 PM)70% (Sep 16, 11:00 PM)29.83 "Hg (Sep 16, 11:00 PM)
Low77 °F (Sep 19, 3:00 AM)6% (Sep 7, 3:00 PM)29.47 "Hg (Sep 5, 2:00 PM)
Average94 °F28%29.64 "Hg
* Reported Sep 5 2:00 PM — Sep 20 2:00 PM, Qatif, Weather by CustomWeather, © 2014

Note: Actual official high and low records may vary slightly from our data, if they occured in-between our weather recording intervals... More about our weather records

Advertising

Qatif weather history for previous 24 hours

 ConditionsComfort  
Time TempWeatherWind HumidityBarometerVisibility
2:00 PM
Sep 20
106 °FSunny.6 mph9%29.65 "Hg10 mi
1:00 PM106 °FSunny.7 mph11%29.65 "Hg10 mi
12:00 PM106 °FSunny.10 mph9%29.68 "Hg10 mi
11:00 AM106 °FSunny.10 mph11%29.68 "Hg10 mi
10:00 AM102 °FSunny.10 mph12%29.74 "Hg10 mi
9:00 AM97 °FSunny.12 mph14%29.74 "Hg10 mi
8:00 AM84 °FSunny.8 mph27%29.74 "Hg10 mi
7:00 AM79 °FSunny.9 mph34%29.74 "Hg10 mi
6:00 AM77 °FSunny.8 mph32%29.71 "Hg10 mi
5:00 AM77 °FClear.10 mph34%29.71 "Hg10 mi
4:00 AM79 °FClear.13 mph34%29.71 "Hg10 mi
3:00 AM79 °FClear.13 mph37%29.71 "Hg10 mi
2:00 AM81 °FClear.8 mph37%29.71 "Hg10 mi
1:00 AM81 °FClear.8 mph39%29.71 "Hg10 mi
12:00 AM81 °FClear.8 mph42%29.74 "Hg10 mi
11:00 PM
Sep 19
82 °FClear.3 mph45%29.74 "Hg10 mi
10:00 PM84 °FClear.2 mph48%29.74 "Hg10 mi
9:00 PM86 °FClear.3 mph46%29.77 "Hg10 mi
8:00 PM90 °FClear.7 mph36%29.74 "Hg10 mi
7:00 PM93 °FClear.6 mph32%29.74 "Hg10 mi
6:00 PM95 °FClear.13 mph26%29.71 "Hg10 mi
5:00 PM99 °FSunny.20 mph21%29.71 "Hg10 mi
4:00 PM100 °FSunny.20 mph20%29.71 "Hg10 mi
3:00 PM104 °FSunny.17 mph13%29.71 "Hg10 mi
Weather by CustomWeather, © 2014

See weather overviewHow to use our weather pages